This is the latest recevied weather packets stored in our database for station/object 9A7DI-13. If no packets are shown the sender has not sent any weather packets the latest 10 day(s).
| Time | Temp. | Humidity | Pressure | Rain* | Wind** | Luminosity | Snow |
|---|---|---|---|---|---|---|---|
| 1777712835 | 24.44° C | 29% | 1032.4 hPa | - | - | - | - |
| 1777712235 | 23.89° C | 31% | 1032.4 hPa | - | - | - | - |
| 1777711635 | 23.89° C | 30% | 1032.4 hPa | - | - | - | - |
| 1777711035 | 23.89° C | 31% | 1032.5 hPa | - | - | - | - |
| 1777710435 | 23.33° C | 33% | 1032.5 hPa | - | - | - | - |
| 1777709835 | 23.33° C | 32% | 1032.6 hPa | - | - | - | - |
| 1777709235 | 23.33° C | 32% | 1032.7 hPa | - | - | - | - |
| 1777708635 | 22.22° C | 32% | 1032.7 hPa | - | - | - | - |
| 1777708035 | 22.22° C | 33% | 1032.8 hPa | - | - | - | - |
| 1777707435 | 21.67° C | 33% | 1032.8 hPa | - | - | - | - |
| 1777706835 | 21.11° C | 35% | 1032.9 hPa | - | - | - | - |
| 1777706235 | 21.11° C | 37% | 1032.9 hPa | - | - | - | - |
| 1777705635 | 20.56° C | 36% | 1033 hPa | - | - | - | - |
| 1777705035 | 20.56° C | 37% | 1033 hPa | - | - | - | - |
| 1777704435 | 20° C | 37% | 1033 hPa | - | - | - | - |
| 1777703835 | 19.44° C | 38% | 1033.1 hPa | - | - | - | - |
| 1777703235 | 18.89° C | 42% | 1033.1 hPa | - | - | - | - |
| 1777702636 | 17.22° C | 43% | 1033.2 hPa | - | - | - | - |
| 1777702035 | 16.67° C | 45% | 1033.1 hPa | - | - | - | - |
| 1777701435 | 16.67° C | 46% | 1033.1 hPa | - | - | - | - |
| 1777700835 | 16.67° C | 46% | 1032.9 hPa | - | - | - | - |
| 1777700235 | 16.11° C | 45% | 1032.8 hPa | - | - | - | - |
| 1777699635 | 15° C | 47% | 1032.8 hPa | - | - | - | - |
| 1777699035 | 13.89° C | 48% | 1032.8 hPa | - | - | - | - |
| 1777698435 | 12.78° C | 54% | 1032.9 hPa | - | - | - | - |
* Rain since midnight (hover to see other rain measurements)
** Current wind speed in m/s (hover to see current wind gust speed)